Voltar ao catálogo

WENCHANG-1 01

AtivoCiênciaPO
NORAD 51827·PAYLOAD·🇨🇳 China
Este nome de satélite ainda não foi confirmado por fontes oficiais.

Lançado Feb 27, 2022 de Wenchang Space Launch Site

Loading…

Próximas Passagens (próximas 24 horas)

TLE

AtualizadoSource: Space-Track

Época: Sep 14, 2026, 13:44 UTC

1 51827U 22019D   26257.57253162  .00236312  22876-4  71947-3 0  9997
2 51827  97.3607 356.0931 0004726 209.1173 150.9838 15.91994764253814

Acompanhe WENCHANG-1 01 em tempo real com AllMySat

Download on the App Store